Tampa Macdill AFB, FL

7:35 PM EST on December 10, 2019 (GMT -0500)
MacDill Air Force Base

Weather History for KMCF - September, 2019

Change the Weather History Date:

Saturday, September 21, 2019

  Actual Average Record
Temperature  
Mean Temperature 79 °F -  
Max Temperature 89 °F 86 °F 95 °F (1997)
Min Temperature 70 °F 72 °F 66 °F (2006)
Cooling Degree Days 14    
Growing Degree Days 29 (Base 50)    
Moisture  
Dew Point 66 °F    
Average Humidity 65    
Maximum Humidity 83    
Minimum Humidity 46    
Precipitation  
Precipitation 0.00 in - - ()
Sea Level Pressure  
Sea Level Pressure 30.12 in    
Wind  
Wind Speed 13 mph (East)    
Max Wind Speed 21 mph    
Max Gust Speed 25 mph    
Visibility 10 miles    
Events      
Averages and records for this station are not official NWS values.
T = Trace of Precipitation, MM = Missing Value Source: NWS Daily Summary

Daily Weather History Graph

Daily Weather History Graph

Search for Another Location

Airport or City:

Astronomy

Sep. 21, 2019 Rise Set
Actual Time 7:17 AM EDT 7:27 PM EDT
Civil Twilight 6:54 AM EDT 7:51 PM EDT
Nautical Twilight 6:27 AM EDT 8:18 PM EDT
Astronomical Twilight 5:59 AM EDT 8:46 PM EDT
Moon No Moon Rise 1:50 PM EDT (9/21)
Length of Visible Light 12h 56m
Length of Day
12h 09m
Waning Gibbous, 55% of the Moon is Illuminated
Sep 21
Waning Gibbous
Sep 21
Last Quarter
Sep 28
New
Oct 5
First Quarter
Oct 13
Full

Hourly Weather History & Observations

Time (EDT) Temp. Heat Index Dew Point Humidity Pressure Visibility Wind Dir Wind Speed Gust Speed Precip Events Conditions
12:56 AM 74.3 °F - 65.5 °F 74% 30.13 in 10.0 mi East 12.7 mph - N/A   Clear
1:56 AM 73.8 °F - 65.7 °F 76% 30.12 in 10.0 mi East 10.4 mph - N/A   Clear
2:56 AM 72.9 °F - 66.2 °F 80% 30.11 in 10.0 mi East 10.4 mph - N/A   Clear
3:56 AM 72.9 °F - 66.9 °F 82% 30.10 in 10.0 mi East 12.7 mph - N/A   Clear
4:56 AM 72.5 °F - 66.6 °F 82% 30.10 in 10.0 mi East 12.7 mph - N/A   Clear
5:56 AM 72.3 °F - 66.2 °F 81% 30.11 in 10.0 mi East 8.1 mph - N/A   Clear
6:56 AM 72.0 °F - 65.1 °F 79% 30.13 in 10.0 mi East 9.2 mph - N/A   Clear
7:56 AM 70.9 °F - 65.5 °F 83% 30.15 in 10.0 mi ENE 6.9 mph - N/A   Clear
8:56 AM 76.3 °F - 65.7 °F 70% 30.16 in 10.0 mi East 10.4 mph - N/A   Clear
9:56 AM 80.1 °F 82.1 °F 65.8 °F 62% 30.16 in 10.0 mi East 16.1 mph - N/A   Clear
10:56 AM 82.6 °F 85.3 °F 67.3 °F 60% 30.16 in 10.0 mi East 13.8 mph - N/A   Clear
11:56 AM 85.6 °F 87.6 °F 65.8 °F 51% 30.15 in 10.0 mi ESE 16.1 mph - N/A   Clear
12:56 PM 87.3 °F 89.2 °F 65.1 °F 48% 30.13 in 10.0 mi East 18.4 mph - N/A   Clear
1:56 PM 88.3 °F 90.2 °F 64.9 °F 46% 30.11 in 10.0 mi East 15.0 mph 25.3 mph N/A   Clear
2:56 PM 88.9 °F 91.4 °F 66.0 °F 47% 30.09 in 10.0 mi East 12.7 mph - N/A   Clear
3:56 PM 88.7 °F 91.9 °F 67.1 °F 49% 30.08 in 10.0 mi ESE 13.8 mph - N/A   Clear
4:56 PM 88.0 °F 90.7 °F 66.9 °F 49% 30.07 in 10.0 mi East 17.3 mph 23.0 mph N/A   Partly Cloudy
5:56 PM 86.2 °F 88.4 °F 65.8 °F 51% 30.07 in 10.0 mi East 19.6 mph - N/A   Partly Cloudy
6:56 PM 83.5 °F 85.5 °F 66.0 °F 55% 30.08 in 10.0 mi East 20.7 mph - N/A   Partly Cloudy
7:56 PM 80.8 °F 83.1 °F 66.6 °F 62% 30.10 in 10.0 mi East 16.1 mph - N/A   Clear
8:56 PM 79.3 °F - 66.9 °F 66% 30.11 in 10.0 mi East 15.0 mph - N/A   Clear
9:56 PM 78.1 °F - 67.5 °F 70% 30.11 in 10.0 mi East 15.0 mph - N/A   Clear
10:56 PM 77.4 °F - 68.0 °F 73% 30.12 in 10.0 mi East 13.8 mph - N/A   Clear
11:56 PM 76.8 °F - 67.8 °F 74% 30.12 in 10.0 mi ENE 9.2 mph - N/A   Clear